![](https://secure.gravatar.com/avatar/e1f07f5a1039bcedb63fecc70f5623fc.jpg?s=120&d=mm&r=g)
SB KEPS @ AMSAT $ORB08171.N 2Line Orbital Elements 08171.AMSAT
HR AMSAT ORBITAL ELEMENTS FOR AMATEUR SATELLITES IN NASA FORMAT FROM WA5QGD FORT WORTH,TX June 19, 2008 Send Subscribe/unsubscribe to KEPS at http://www.amsat.org/mailman/listinfo/keps BID: ORB08171.N
DECODE 2-LINE ELSETS WITH THE FOLLOWING KEY: 1 AAAAAU 00 0 0 BBBBB.BBBBBBBB .CCCCCCCC 00000-0 00000-0 0 DDDZ 2 AAAAA EEE.EEEE FFF.FFFF GGGGGGG HHH.HHHH III.IIII JJ.JJJJJJJJKKKKKZ KEY: A-CATALOGNUM B-EPOCHTIME C-DECAY D-ELSETNUM E-INCLINATION F-RAAN G-ECCENTRICITY H-ARGPERIGEE I-MNANOM J-MNMOTION K-ORBITNUM Z-CHECKSUM
TO ALL RADIO AMATEURS BT
AO-07 1 07530U 74089B 08170.65028065 -.00000027 00000-0 10000-3 0 02066 2 07530 101.4644 202.0976 0011647 259.7821 100.1946 12.53573711537164 AO-10 1 14129U 83058B 08170.20164984 -.00000053 00000-0 10000-3 0 5192 2 14129 025.9698 209.8220 5983322 133.0020 295.8676 02.05869993188126 UO-11 1 14781U 84021B 08170.74101097 .00000340 00000-0 52552-4 0 6987 2 14781 098.1539 204.7982 0010167 070.2226 290.0091 14.79649753304085 RS-15 1 23439U 94085A 08170.96499230 -.00000039 00000-0 10000-3 0 01512 2 23439 064.8140 132.1715 0147402 122.5002 239.0262 11.27552246555167 FO-29 1 24278U 96046B 08170.82235687 -.00000019 00000-0 18393-4 0 08083 2 24278 098.5870 086.8990 0350317 211.2188 146.7718 13.52937899584618 SO-33 1 25509U 98061B 08171.63725146 .00000108 00000-0 11258-4 0 2225 2 25509 031.4322 302.4948 0354263 048.6392 314.4145 14.28216504503961 AO-40 1 26609U 00072B 08171.19788136 -.00000101 00000-0 10000-3 0 800 2 26609 007.5896 076.8086 7915974 092.8833 348.8257 01.25584887 35069 VO-52 1 28650U 05017B 08170.82469489 .00000383 00000-0 55156-4 0 9596 2 28650 097.7899 237.3909 0028165 133.8628 226.4931 14.81475284168846 PO-63 1 29712U 07001D 08171.72532007 .00000493 00000-0 71622-4 0 5479 2 29712 097.8749 229.8644 0014840 018.3634 341.8114 14.80186465 77845 AO-16 1 20439U 90005D 08171.58661013 .00000012 00000-0 19754-4 0 3480 2 20439 098.2296 151.5261 0010941 164.6107 195.5417 14.31796309961266 LO-19 1 20442U 90005G 08170.65532559 .00000040 00000-0 30028-4 0 2750 2 20442 098.1996 159.1742 0012057 165.7696 194.3835 14.32034595961285 AO-27 1 22825U 93061C 08170.60084391 .00000007 00000-0 19252-4 0 09973 2 22825 098.3842 130.5693 0007564 255.3075 104.7266 14.29241144767975 IO-26 1 22826U 93061D 08170.93462441 .00000004 00000-0 18101-4 0 07030 2 22826 098.3761 131.7991 0008031 251.9216 108.1111 14.29490142768117 PO-28 1 22829U 93061G 08171.41001182 .00000029 00000-0 27234-4 0 9720 2 22829 098.3646 133.3607 0009001 219.6067 140.4469 14.30191485768448 GO-32 1 25397U 98043D 08170.65730674 -.00000096 00000-0 -24487-4 0 06278 2 25397 098.3637 205.7473 0000584 184.9562 175.1619 14.23144066516423 NO-44 1 26931U 01043C 08171.59450803 .00000073 00000-0 61000-4 0 9069 2 26931 067.0536 278.4535 0006887 272.7489 087.2820 14.29525820350757 SO-50 1 27607U 02058C 08171.72513984 -.00000025 00000-0 18385-4 0 6313 2 27607 064.5593 045.9327 0085807 279.0917 080.0462 14.71362918295344 CO-55 1 27844U 03031E 08171.54976444 .00000044 00000-0 40703-4 0 3318 2 27844 098.7144 179.7831 0010776 106.2094 254.0283 14.20584481257778 CO-57 1 27848U 03031J 08170.56197209 .00000025 00000-0 32081-4 0 02832 2 27848 098.7156 177.9053 0010520 112.2502 247.9803 14.20392734257608 AO-51 1 28375U 04025K 08170.57685690 .00000014 00000-0 16703-4 0 1277 2 28375 098.0704 195.0695 0083914 147.8771 212.7574 14.40611176208605 CO-56 1 28941U 06005C 08171.76981856 .00023581 25706-5 17372-3 0 1463 2 28941 098.1087 282.8247 0164992 032.1173 328.9872 15.57451082130449 CP4 1 31122U 07012F 08171.15617614 .00000549 00000-0 13192-3 0 3662 2 31122 098.0426 236.6765 0084463 323.4296 036.1125 14.55134289 62366 CP3 1 31128U 07012M 08170.64440964 -.00000048 00000-0 00000-0 0 03591 2 31128 098.0384 234.0202 0102374 330.9803 028.5749 14.51953201062144 NOAA-10 1 16969U 86073A 08171.18750013 -.00000116 00000-0 -29281-4 0 1647 2 16969 098.7203 193.1530 0012259 171.3654 188.7741 14.27361508131727 NOAA-11 1 19531U 88089A 08171.14773882 .00000158 00000-0 10420-3 0 2031 2 19531 098.7985 260.4449 0012419 064.1371 296.1072 14.14872795 18188 NOAA-12 1 21263U 91032A 08171.16722405 .00000116 00000-0 67931-4 0 7191 2 21263 098.7648 173.1178 0013376 117.6066 242.6479 14.25536559888679 MET-3/5 1 21655U 91056A 08170.94047952 .00000051 00000-0 10000-3 0 04687 2 21655 082.5506 103.1452 0014593 013.6440 346.5073 13.17015537809810 MET-2/21 1 22782U 93055A 08170.94486190 -.00000019 00000-0 -30514-4 0 01744 2 22782 082.5476 110.1851 0021019 287.1338 072.7527 13.83629363747379 OKEAN-4 1 23317U 94066A 08171.75651307 .00000037 00000-0 14914-5 0 6184 2 23317 082.5390 312.6692 0023683 116.4487 243.9155 14.82617828738663 NOAA-14 1 23455U 94089A 08170.68029562 .00000209 00000-0 13398-3 0 01870 2 23455 098.9465 242.9237 0010190 137.3980 222.7990 14.13744677694568 SICH-1 1 23657U 95046A 08170.70122479 .00000139 00000-0 14541-4 0 04172 2 23657 082.5273 094.6443 0025511 112.8270 247.5660 14.81585875690442 NOAA-15 1 25338U 98030A 08171.18345980 -.00000074 00000-0 -13325-4 0 5083 2 25338 098.5531 162.9907 0011363 040.7724 319.4321 14.24707783525082 RESURS 1 25394U 98043A 08170.65457727 .00000009 00000-0 21680-4 0 09660 2 25394 098.3885 214.5483 0001144 152.8675 207.2557 14.24162261516657 FENGYUN1 1 25730U 99025A 08171.82944540 .00000474 00000-0 30461-3 0 4644 2 25730 098.7223 147.5243 0020294 157.7482 202.4571 14.07693946469332 OKEAN-0 1 25860U 99039A 08170.54253957 .00000011 00000-0 89714-5 0 03975 2 25860 097.7494 161.0296 0000632 050.8597 309.2667 14.73525372479599 NOAA-16 1 26536U 00055A 08171.11975429 -.00000120 00000-0 -39755-4 0 9793 2 26536 099.1547 160.3374 0009830 216.7565 143.2959 14.12484337399040 NOAA-17 1 27453U 02032A 08170.66849822 -.00000070 00000-0 -12197-4 0 09701 2 27453 098.5356 235.2521 0012897 103.6177 256.6443 14.23980993311015 NOAA-18 1 28654U 05018A 08170.68356369 .00000230 00000-0 15199-3 0 04720 2 28654 098.8679 111.5951 0013712 313.3625 046.6407 14.11171174158687 HUBBLE 1 20580U 90037B 08171.73841392 .00000318 00000-0 11752-4 0 1600 2 20580 028.4690 306.5931 0003408 054.0999 305.9908 15.00387443795363 PO-34 1 25520U 98064B 08170.38062753 .00000385 00000-0 91922-5 0 00255 2 25520 028.4593 170.7911 0005254 296.5203 063.4852 15.17201839533349 ISS 1 25544U 98067A 08170.94347382 .00017507 00000-0 10894-3 0 06921 2 25544 051.6427 007.3198 0005894 350.2420 096.0875 15.77053772548801 CO-58 1 28895U 05043F 08171.72530725 .00000095 00000-0 29461-4 0 498 2 28895 098.0992 065.6678 0018482 045.0989 315.1728 14.59676968140853 NCUBE2 1 28897U 05043H 08170.25018137 .00000079 00000-0 26089-4 0 05800 2 28897 098.0981 064.1579 0018379 049.2026 311.0764 14.59847182132922 FCAL 1 29667U 06055J 08146.34060426 .11864717 12752-4 73624-4 0 9790 2 29667 051.6107 065.3702 0009039 260.8350 099.5042 16.53464210 82911 FALCON 1 30776U 07006E 08170.96933700 .00000219 00000-0 19029-4 0 03361 2 30776 035.4325 142.6844 0001414 358.1828 001.8891 15.03005107070412 MAST 1 31126U 07012K 08171.71953993 -.00000066 00000-0 -39191-5 0 3554 2 31126 098.0386 236.0521 0094125 324.7707 034.7285 14.53428445 62387 CAPE1 1 31130U 07012P 08170.15679680 -.00000082 00000-0 -78911-5 0 03397 2 31130 098.0381 233.5589 0102422 332.4923 027.0850 14.51968614061869 CUTE1-7 1 32785U 08021C 08170.33529666 .00000238 00000-0 37310-4 0 00804 2 32785 097.9924 230.2531 0015655 128.8795 231.3815 14.81367698007570 COMPASS 1 32787U 08021E 08170.33359543 .00000329 00000-0 48778-4 0 00712 2 32787 097.9885 230.2243 0016633 130.7882 229.4774 14.81421798007578 AAUSAT2 1 32788U 08021F 08171.81573088 .00000422 00000-0 60588-4 0 727 2 32788 097.9885 231.7096 0016772 127.7503 232.5207 14.81532498 7791 DO-64 1 32789U 08021G 08170.94227896 .00000589 00000-0 82050-4 0 00816 2 32789 097.9911 230.8503 0016683 128.1667 232.1048 14.81410044007669 SEEDS 1 32791U 08021J 08170.13573835 .00000428 00000-0 61639-4 0 00785 2 32791 097.9930 230.0371 0016969 129.0062 231.2665 14.81281556007517 CANX-2 1 32797U 08021L 08169.11117159 .00001971 00000-0 25623-3 0 00337 2 32797 097.9923 229.0501 0018051 136.6067 223.6579 14.81732267006070 RS-30 1 32953U 08025A 08171.82453915 .00000010 00000-0 00000 0 0 352 2 32953 082.4998 121.9451 0017459 249.7553 110.1650 12.42997024 3375 /EX